Location: Bonac
(42.8765°N, 0.9753°E)
Time: 03:36:05
(UTC+00:00)

NOAA 15 - Pass Details

Date: 18 April 2026
Orbit: 793 x 810 km, 98.5° (Epoch: 11 May)

Event Time Altitude Azimuth Distance (km) Brightness Sun altitude
Rises 19:20:00 0° 200° (SSW) 3,311 7.8 -7.4°
Reaches altitude 10° 19:22:47 10° 214° (SW) 2,383 7.2 -7.9°
Maximum altitude 19:26:57 23° 267° (W) 1,638 7.1 -8.6°
Drops below altitude 10° 19:31:08 10° 319° (NW) 2,389 8.2 -9.3°
Sets 19:33:57 0° 334° (NNW) 3,322 8.7 -9.8°
